FW5335 Weather Reports


time (UTC)temp
F
wind
direction
speed
knots
gust
knots
rain 1hr
in
rain 24hr
in
rain mn
in
humidity
%
barometer
mb
20260905024519 53 0 1.7 2.6 0.00 0.03 0.00 87 1022.4
20260905023601 53 23 0.9 1.7 0.00 0.03 0.00 87 1022.5
20260905022520 54 248 0.9 1.7 0.00 0.03 0.00 87 1022.4
20260905021519 54 248 1.7 6.1 0.00 0.03 0.00 87 1022.2
20260905020517 54 248 1.7 4.3 0.00 0.03 0.00 87 1022.2
20260905015520 54 225 2.6 5.2 0.00 0.03 0.00 87 1022.2
20260905014522 54 225 2.6 5.2 0.00 0.03 0.00 87 1022.2
20260905013519 54 248 2.6 6.1 0.00 0.03 0.00 87 1022.3
20260905012517 54 248 2.6 4.3 0.00 0.03 0.00 87 1022.3
20260905011519 54 225 1.7 3.5 0.00 0.03 0.00 86 1022.2
20260905010539 54 225 2.6 4.3 0.00 0.03 0.00 86 1022.1
20260905005519 54 225 1.7 7.0 0.00 0.03 0.00 86 1022.1
20260905004538 55 225 2.6 4.3 0.00 0.03 0.00 85 1022.2
20260905003517 55 248 2.6 4.3 0.00 0.03 0.00 85 1022.1
20260905002519 55 225 2.6 4.3 0.00 0.03 0.00 85 1022.1
20260905001519 55 225 2.6 6.1 0.00 0.03 0.00 85 1022.0
20260905000517 55 225 3.5 7.0 0.00 0.03 0.00 85 1021.8
20260904235518 55 225 3.5 7.8 0.00 0.03 0.00 85 1021.7
20260904234518 55 225 3.5 6.1 0.00 0.03 0.00 85 1021.7
20260904233519 55 225 3.5 6.1 0.00 0.03 0.00 85 1021.6
20260904232537 55 225 3.5 6.1 0.00 0.03 0.00 84 1021.6
20260904231528 55 225 2.6 4.3 0.00 0.03 0.00 84 1021.7
20260904230523 55 225 2.6 5.2 0.00 0.03 0.00 83 1021.7
20260904225519 55 225 1.7 4.3 0.00 0.03 0.03 83 1021.6
20260904224517 56 225 2.6 4.3 0.00 0.03 0.03 83 1021.6
20260904223519 56 225 4.3 7.8 0.00 0.03 0.03 83 1021.3
20260904222541 56 225 5.2 9.6 0.00 0.03 0.03 83 1021.5
20260904221517 56 225 4.3 7.8 0.00 0.03 0.03 83 1021.5
20260904220540 56 225 4.3 7.0 0.00 0.03 0.03 83 1021.5
20260904215519 56 225 3.5 7.8 0.00 0.03 0.03 83 1021.4
20260904214523 56 225 3.5 7.0 0.00 0.03 0.03 83 1021.2
20260904213524 56 225 3.5 5.2 0.00 0.03 0.03 83 1020.9
20260904212519 57 225 2.6 5.2 0.00 0.03 0.03 83 1020.9
20260904211519 57 225 3.5 6.1 0.00 0.03 0.03 83 1021.0
20260904210519 57 225 3.5 5.2 0.00 0.03 0.03 82 1021.0
20260904205520 57 225 2.6 5.2 0.00 0.03 0.03 82 1021.0
20260904204517 57 225 3.5 6.1 0.00 0.03 0.03 82 1020.9
20260904203542 57 225 3.5 6.1 0.00 0.03 0.03 81 1020.9
20260904202559 58 225 3.5 6.1 0.00 0.03 0.03 81 1020.9
20260904201518 58 225 2.6 4.3 0.00 0.03 0.03 80 1020.9
20260904200618 58 225 2.6 5.2 0.00 0.03 0.03 79 1020.6
20260904195520 59 225 2.6 5.2 0.00 0.03 0.03 78 1020.6
20260904194518 59 225 2.6 5.2 0.00 0.03 0.03 77 1020.5
20260904193522 60 225 3.5 6.1 0.00 0.03 0.03 76 1020.3
20260904192620 61 225 3.5 5.2 0.00 0.03 0.03 75 1020.4
20260904191520 61 248 2.6 6.1 0.00 0.03 0.03 74 1020.3
20260904190520 61 248 4.3 9.6 0.00 0.03 0.03 73 1020.2
20260904185522 62 248 3.5 8.7 0.00 0.03 0.03 72 1020.2
20260904184520 62 248 5.2 10.4 0.00 0.03 0.03 72 1020.1
20260904183519 63 270 4.3 12.2 0.00 0.03 0.03 71 1020.0
20260904182520 63 248 5.2 10.4 0.00 0.03 0.03 72 1019.8
20260904181524 63 248 6.1 11.3 0.00 0.03 0.03 72 1019.6
20260904180520 63 248 5.2 13.0 0.00 0.03 0.03 72 1019.7
20260904175520 64 225 5.2 13.0 0.00 0.03 0.03 72 1019.7
20260904174601 64 270 4.3 7.8 0.00 0.03 0.03 71 1019.6
20260904173543 63 270 5.2 11.3 0.00 0.03 0.03 71 1019.5
20260904172520 64 248 5.2 13.9 0.00 0.03 0.03 71 1019.3
20260904171619 64 225 5.2 9.6 0.00 0.03 0.03 70 1019.4
20260904170518 64 248 6.1 12.2 0.00 0.03 0.03 69 1019.6
20260904165520 64 248 8.7 14.8 0.00 0.03 0.03 68 1019.3
20260904164520 64 248 6.1 12.2 0.00 0.03 0.03 68 1019.2
20260904163519 64 248 7.0 13.9 0.00 0.03 0.03 68 1019.0
20260904162541 65 248 7.0 13.0 0.00 0.03 0.03 67 1019.0
20260904161521 65 270 6.1 13.0 0.00 0.03 0.03 65 1019.0
20260904160519 65 248 6.1 11.3 0.00 0.03 0.03 63 1019.2
20260904155518 66 248 5.2 9.6 0.00 0.03 0.03 63 1019.3
20260904154519 66 248 6.1 11.3 0.00 0.03 0.03 63 1019.1
20260904153519 66 248 7.0 12.2 0.00 0.03 0.03 62 1019.1
20260904152521 66 248 6.1 11.3 0.00 0.03 0.03 63 1018.8
20260904151520 66 270 6.1 11.3 0.00 0.03 0.03 64 1019.0
20260904150517 66 248 6.1 12.2 0.00 0.03 0.03 62 1019.0
20260904145521 67 248 7.8 13.9 0.00 0.03 0.03 61 1018.7
20260904144559 67 248 6.1 10.4 0.00 0.03 0.03 61 1018.7
20260904143521 67 270 8.7 14.8 0.00 0.03 0.03 62 1018.6
20260904142520 67 270 7.0 12.2 0.00 0.03 0.03 61 1018.6
20260904141518 66 270 8.7 13.9 0.00 0.03 0.03 62 1018.6
20260904140519 66 270 7.8 14.8 0.00 0.03 0.03 63 1018.5
20260904135519 66 270 7.0 13.9 0.00 0.03 0.03 61 1018.3
20260904134520 66 270 7.0 13.9 0.00 0.03 0.03 60 1018.3
20260904133518 67 270 7.8 15.6 0.00 0.03 0.03 60 1018.3
20260904132516 66 270 7.8 14.8 0.00 0.03 0.03 63 1018.1
20260904131516 67 270 4.3 12.2 0.00 0.03 0.03 64 1017.9
20260904130519 67 270 4.3 11.3 0.00 0.03 0.03 65 1017.9
20260904125518 67 293 7.0 13.9 0.00 0.03 0.03 63 1018.0
20260904124520 67 248 4.3 8.7 0.00 0.03 0.03 63 1017.5
20260904123521 67 270 7.0 13.0 0.00 0.03 0.03 60 1017.5
20260904122520 67 270 4.3 9.6 0.00 0.03 0.03 65 1017.6
20260904121517 67 248 7.8 15.6 0.00 0.03 0.03 64 1017.5
20260904120521 68 248 7.8 15.6 0.00 0.03 0.03 65 1017.4
20260904115517 68 270 9.6 17.4 0.00 0.03 0.03 66 1017.4
20260904114519 68 270 8.7 16.5 0.00 0.03 0.03 67 1017.1
20260904113522 68 270 6.1 13.9 0.00 0.03 0.03 68 1017.0
20260904112516 68 270 7.8 14.8 0.00 0.03 0.03 68 1017.0
20260904111523 68 270 9.6 17.4 0.00 0.03 0.03 69 1017.0
20260904110518 68 270 10.4 15.6 0.00 0.03 0.03 71 1016.5
20260904105518 69 248 9.6 17.4 0.00 0.03 0.03 69 1016.6
20260904104516 69 248 8.7 15.6 0.00 0.03 0.03 70 1016.5
20260904103518 68 248 7.0 13.0 0.00 0.03 0.03 72 1016.2
20260904102518 67 248 5.2 13.0 0.00 0.03 0.03 75 1016.2
20260904101520 67 270 7.8 15.6 0.00 0.03 0.03 76 1016.2
20260904100519 67 248 7.8 14.8 0.00 0.03 0.03 75 1016.1
20260904095518 67 248 7.0 13.9 0.00 0.03 0.03 74 1016.1
20260904094520 68 248 7.8 14.8 0.00 0.03 0.03 73 1016.3
20260904093601 67 248 7.0 13.0 0.00 0.03 0.03 76 1016.0
20260904092519 67 248 5.2 12.2 0.00 0.03 0.03 76 1016.1
20260904091524 68 248 7.8 17.4 0.00 0.03 0.03 75 1015.9
20260904090539 67 270 7.8 16.5 0.00 0.03 0.03 77 1015.4
20260904085542 66 270 7.0 12.2 0.00 0.03 0.03 81 1015.4
20260904084523 66 270 6.1 13.0 0.00 0.03 0.03 83 1015.3
20260904083521 66 270 6.1 12.2 0.00 0.03 0.03 84 1015.0
20260904082523 65 270 7.0 12.2 0.00 0.03 0.03 85 1015.0
20260904081521 64 248 7.8 13.0 0.00 0.03 0.03 86 1014.9
20260904080544 64 248 7.0 12.2 0.00 0.03 0.03 87 1014.8
20260904075521 64 248 7.0 11.3 0.00 0.03 0.03 87 1014.6
20260904074519 64 248 5.2 8.7 0.00 0.03 0.03 88 1014.6
20260904073522 64 225 4.3 9.6 0.00 0.03 0.03 88 1014.6
20260904072520 63 248 6.1 11.3 0.00 0.03 0.03 88 1014.5
20260904071521 63 248 5.2 10.4 0.00 0.03 0.03 88 1014.3
20260904070526 63 248 7.0 13.0 0.00 0.03 0.03 88 1014.4
20260904065524 63 225 3.5 7.8 0.00 0.03 0.03 88 1014.4
20260904064519 63 248 5.2 9.6 0.03 0.03 0.03 88 1014.3
20260904063519 64 248 4.3 8.7 0.03 0.03 0.03 88 1014.1
20260904062541 64 270 6.1 13.9 0.03 0.03 0.03 87 1014.2
20260904061543 64 248 7.0 12.2 0.03 0.03 0.03 87 1014.0
20260904060540 65 270 6.1 12.2 0.03 0.03 0.03 87 1013.7
20260904055518 66 270 7.0 14.8 0.03 0.03 0.03 87 1013.5
20260904054519 67 248 8.7 17.4 0.00 0.00 0.00 89 1012.9
20260904053522 67 248 7.8 14.8 0.00 0.00 0.00 88 1012.7
20260904052519 67 248 9.6 19.1 0.00 0.00 0.00 87 1012.4
20260904051539 68 225 7.8 14.8 0.00 0.00 0.00 86 1012.7
20260904050524 68 248 9.6 17.4 0.00 0.00 0.00 86 1012.5
20260904045558 68 248 8.7 17.4 0.00 0.00 0.00 85 1012.5
20260904044538 68 225 8.7 15.6 0.00 0.00 0.00 84 1012.4
20260904043519 68 225 9.6 16.5 0.00 0.00 0.00 84 1012.6
20260904042523 68 225 7.0 14.8 0.00 0.00 0.00 84 1012.5
20260904041518 68 225 7.0 13.0 0.00 0.00 0.00 85 1012.5
20260904040518 68 225 5.2 11.3 0.00 0.00 0.00 85 1012.6
20260904035519 69 225 6.1 11.3 0.00 0.00 0.00 84 1012.7
20260904034539 69 225 7.8 17.4 0.00 0.00 0.00 84 1012.5
20260904033538 68 225 9.6 19.1 0.00 0.00 0.00 84 1012.5
20260904032517 68 225 7.8 16.5 0.00 0.00 0.00 84 1012.8
20260904031517 68 225 9.6 19.1 0.00 0.00 0.00 84 1012.9
20260904030520 68 225 8.7 20.9 0.00 0.00 0.00 85 1012.9
20260904025523 68 225 8.7 14.8 0.00 0.00 0.00 85 1013.3